This is the latest recevied weather packets stored in our database for station/object G6LTT. If no packets are shown the sender has not sent any weather packets the latest 10 day(s).
| Time | Temp. | Humidity | Pressure | Rain* | Wind** | Luminosity | Snow |
|---|---|---|---|---|---|---|---|
| 1777524843 | 8.89° C | 70% | 1051.8 hPa | 0 mm | - | - | - |
| 1777524433 | 8.89° C | 70% | 1051.8 hPa | 0 mm | - | - | - |
| 1777522683 | 8.89° C | 71% | 1051.7 hPa | 0 mm | - | - | - |
| 1777519083 | 9.44° C | 71% | 1051.7 hPa | 0 mm | - | - | - |
| 1777505763 | 9.44° C | 69% | 1052.7 hPa | 0 mm | - | - | - |
| 1777504143 | 9.44° C | 69% | 1053 hPa | 0 mm | - | - | - |
| 1777503243 | 9.44° C | 67% | 1052.9 hPa | 0 mm | - | - | - |
| 1777499108 | 10.56° C | 60% | 1052.4 hPa | 0 mm | - | - | - |
| 1777495508 | 11.67° C | 53% | 1052.4 hPa | 0 mm | - | - | - |
| 1777489749 | 13.33° C | 45% | 1051.8 hPa | 0 mm | - | - | - |
| 1777489203 | 13.33° C | 44% | 1051.7 hPa | 0 mm | - | - | - |
| 1777488843 | 13.33° C | 44% | 1051.7 hPa | 0 mm | - | - | - |
| 1777487768 | 13.89° C | 42% | 1051.4 hPa | 0 mm | - | - | - |
| 1777484835 | 15° C | 38% | 1051.3 hPa | 0 mm | - | - | - |
| 1777484163 | 15° C | 38% | 1051.5 hPa | 0 mm | - | - | - |
| 1777483083 | 15° C | 37% | 1051.7 hPa | 0 mm | - | - | - |
| 1777481648 | 15° C | 38% | 1051.6 hPa | 0 mm | - | - | - |
| 1777476014 | 16.67° C | 35% | 1052 hPa | 0 mm | - | - | - |
| 1777475348 | 16.67° C | 33% | 1052.2 hPa | 0 mm | - | - | - |
| 1777474803 | 16.67° C | 33% | 1052 hPa | 0 mm | - | - | - |
| 1777473903 | 17.22° C | 33% | 1052.3 hPa | 0 mm | - | - | - |
| 1777473368 | 17.22° C | 33% | 1052.6 hPa | 0 mm | - | - | - |
| 1777468277 | 17.78° C | 31% | 1052.3 hPa | 0 mm | - | - | - |
| 1777467375 | 17.78° C | 31% | 1052.3 hPa | 0 mm | - | - | - |
| 1777463643 | 16.67° C | 33% | 1053.1 hPa | 0 mm | - | - | - |
* Rain latest hour (hover to see other rain measurements)
** Current wind speed in m/s (hover to see current wind gust speed)